Terminal Aerodrome Forecast
Issued by NWS

Home | Current Version | Previous Version | Text Only | Print | Product List | Glossary On
Versions: 1 2 3 4 5 6 7 8 9 10 11 12 13 14 15 16 17 18 19 20 21 22 23
000
FTAK31 PAJN 171300 AAC
TAFAYA
TAF AMD
PAYA 171347Z 1714/1812 VRB03KT P6SM VCFG SCT015 OVC070
      TEMPO 1714/1717 VRB02KT 4SM BR SCT002 BKN060
     FM171700 07004KT 6SM BR VCSH SCT020 OVC060
     FM172200 12006KT P6SM -RA SCT015 OVC025
     FM180400 11008KT 5SM -RA BR SCT010 OVC020
      AMD LTD TO CLD VIS AND WIND 1801/1810=

USA.gov is the U.S. government's official web portal to all federal, state and local government web resources and services.